Weather in Kletsko-Pochtovsky

Russia / Volgograd Oblast     49°35′23″N   43°03′21″E
temp.,
°C
wind,
m/s
gust,
m/s
humid.,
%
clouds,
%
prec.,
mm/h
press.,
hPa
HPBL,
m
18 may, tue
tue1800:00+20ese47370 0.0 1009100
03:00+18e4838100 0.0 1008113
06:00+18ese514410 0.0 1007311
09:00+24se57315 0.0 1007544
12:00+27sse56288 0.0 10071485
15:00+26s7835100 0.0 10071225
18:00+20sw6871100 0.0 1008569
21:00+16sw37838 0.1 1010273
19 may, wed
wed1900:00+15sw22900 0.0 101024
03:00+14w009139 0.0 101011
06:00+16w117898 0.0 101065
09:00+21ene2251100 0.0 1009705
12:00+24sse4643100 0.0 10081466
15:00+26s81041100 0.0 10082213
18:00+16sw71181100 0.6 1009571
21:00+14ssw278197 0.6 1011449
20 may, thu
thu2000:00+13s510863 0.0 1012374
03:00+12s610925 0.0 1012355
06:00+14ssw7118617 0.0 1012593
09:00+16ssw7974100 0.1 10131001
12:00+17ssw7107049 0.3 10131167
15:00+19wsw7115743 0.5 10131733
18:00+19wsw510561 0.1 10131261
21:00+15sw34725 0.1 101467
21 may, fri
fri2100:00+14sw3378100 0.0 101547
03:00+13ssw33826 0.0 101527
06:00+15ssw2377100 0.0 1016111
09:00+20ssw3456100 0.0 1016857
12:00+24ssw2439100 0.0 10161560
15:00+26s2439100 0.0 10151799
18:00+24e334899 0.0 101565
21:00+21ene4455100 0.0 101564
22 may, sat
sat2200:00+20e61451100 0.0 1014360
03:00+18e59615 0.1 1014179
06:00+18e614617 0.0 1014370
09:00+24se1016410 0.0 10131091
12:00+29se101330100 0.0 10131465
15:00+31se91326100 0.0 10112039
18:00+29se51139100 0.0 1011351
21:00+24se4948100 0.0 1012149